802  
ASUS43 KIWX 142201  
RWRIWX  
 
KIWX WEATHER ROUNDUP  
NATIONAL WEATHER SERVICE NORTHERN INDIANA  
600 PM EDT TUE AUG 14 2018  
 
NOTE: "FAIR" INDICATES FEW OR NO CLOUDS BELOW 12,000 FEET WITH NO  
SIGNIFICANT WEATHER AND/OR S TO VISIBILITY
.  
 
* THESE STATIONS ARE NOT UNDER NWS QUALITY CONTROL. THEY ALSO MAY NOT  
REPORT WEATHER SUCH AS PRECIPITATION OR FOG.
 
 
INZ001>027-142300-  
NORTHERN INDIANA  
 
CITY SKY/WX TMP DP RH WIND PRES REMARKS
 
GARY* PTSUNNY 88 61 40 VRB5 29.95F  
MICHIGAN CITY* FAIR 82 61 47 W5 29.97F  
SOUTH BEND FAIR 84 62 47 SW7 29.98F  
ELKHART* FAIR 84 66 54 W6 29.98S  
GOSHEN FAIR 82 68 62 W9 29.98S  
MONTICELLO* FAIR 84 63 48 SW5 29.98S  
KENDALLVILLE* FAIR 83 63 51 W13 29.99S  
FORT WAYNE FAIR 83 71 67 W7 29.99S  
PERU/GRISSOM FAIR 83 66 56 W8 29.99S  
 

 
INZ028>050-142300-  
CENTRAL INDIANA  
 
CITY SKY/WX TMP DP RH WIND PRES REMARKS
 
LAFAYETTE FAIR 85 66 53 VRB5 29.98S  
KOKOMO* FAIR 83 68 60 W7 30.01S  
MUNCIE* FAIR 84 67 56 NW8 30.00S  
INDIANAPOLIS PTSUNNY 85 63 47 SW6 29.99F  
 

 
MIZ043>046-050>051-056>058-064>065-071>073-077>080-142300-  
SOUTHWEST LOWER MICHIGAN  
 
CITY SKY/WX TMP DP RH WIND PRES REMARKS
 
BATTLE CREEK FAIR 84 68 58 W10 29.98S  
BENTON HARBOR FAIR 84 63 49 NW3 29.97F  
COLDWATER* FAIR 85 64 49 W9 29.97S  
HILLSDALE* FAIR 82 64 54 W6 29.98S  
HOLLAND FAIR 83 68 60 SW10 29.97F  
GRAND RAPIDS FAIR 85 63 47 W16 29.96R  
KALAMAZOO FAIR 83 67 58 W13 29.97S  
STURGIS* FAIR 83 66 55 NW6 29.98S  
THREE RIVERS* PTSUNNY 81 69 66 NW6 29.98S  
 

 
OHZ001>008-015>018-024>025-142300-  
NORTHWEST OHIO  
 
CITY SKY/WX TMP DP RH WIND PRES REMARKS
 
WAUSEON* FAIR 84 68 58 W10 29.96S  
DEFIANCE FAIR 84 67 56 W6 29.97S  
FINDLAY FAIR 85 65 51 W7 29.96S  
OTTAWA* FAIR 81 64 57 W10 29.99S  
TOLEDO EXPRESS FAIR 87 63 44 W12 29.95S  
LIMA FAIR 81 67 62 W8 29.98F  
 

 
AND FOR LAKE MICHIGAN COASTAL AND OPEN LAKE BUOY OBSERVATIONS  
 
STATION/POSITION TEMP WIND PRES VSBY WAVE
 
AIR SEA DIR/SP/G HT/PER  
(F) (DEG/KT/KT) (MB) (MI) (FT/S)  
CALUMET HARBOR 88 240/ 4/ 6 1013.6F  
MICHIGAN CITY 80 40/ 7/ 7 N/A  
BURNS HARBOR 85 1014.9F  
SAINT JOSEPH 87 240/ 2/ 3 1015.2  
SOUTH LAKE BUOY 78 78 160/ 8/ 8 1014.1F 0  
4 MI NW BRIDGMAN 81 130/ 2/ 2 1014.3F 1  
MICHIGAN CITY 80 80 90/ 6/ 8 N/A 1  
 

 

 
 
 
CLICK HERE TO GO TO PREVIOUS BULLETINS.

The Nexlab IN Page
The Nexlab OH Page
The Nexlab MI Page Main Text Page